Location: Lake Almanor
(40.2485°N, 121.1442°W)
Time: 02:23:26
(UTC-08:00)

STARLINK-1083 - Pass Details

Date: 31 January 2020
Orbit: 349 x 351 km, 53.0° (Epoch: 22 February)

Event Time Altitude Azimuth Distance (km) Brightness Sun altitude
Rises 19:46:10 0° 296° (WNW) 2,172 7.7 -27.7°
Reaches altitude 10° 19:48:32 10° 277° (W) 1,324 6.5 -28.2°
Enters shadow 19:49:06 13° 268° (W) 1,167 6.2 -28.3°
